Flag for Saint Lucia Weather past 2 weeks in Castries, Saint Lucia

Now
81 °F

Sprinkles. Broken clouds.


Feels Like: 87 °F
Forecast: 80 / 84 °F
Wind: 6 mph from East

Location: Vigie

Current Time: Aug 21, 2014 at 8:57:09 AM

Latest Report: Aug 21, 2014 at 8:00 AM


Visibility: N/A

Pressure: 29.92 "Hg

Humidity: 89%

Dew point: 77 °F

Location of CastriesLocation

Historic Weather in Castries — Graph

°F

Castries temperature yesterday

Maximum temperature yesterday: 88 °F (at 1:00 PM)
Minimum temperature yesterday: 81 °F (at 12:00 AM)
Average temperature yesterday: 83 °F

Past Weeks' High & Low Weather Summary

 TemperatureHumidityPressure
High90 °F (Aug 16, 2:00 PM)100% (Aug 8, 7:00 AM)30.07 "Hg (Aug 8, 7:00 AM)
Low77 °F (Aug 7, 5:00 PM)62% (Aug 18, 11:00 AM)29.89 "Hg (Aug 18, 3:00 PM)
Average83 °F80%29.98 "Hg
* Reported Aug 6 7:00 AM — Aug 21 7:00 AM, Castries, Weather by CustomWeather, © 2014

Note: Actual official high and low records may vary slightly from our data, if they occured in-between our weather recording intervals... More about our weather records

Advertising

Castries weather history for previous 24 hours

 ConditionsComfort  
Time TempWeatherWind HumidityBarometerVisibility
7:00 AM
Aug 21
79 °FSprinkles. Broken clouds.No wind94%29.92 "HgN/A
6:00 AM79 °FSprinkles. Broken clouds.No wind94%29.89 "HgN/A
12:00 AM81 °FPassing clouds.6 mph89%29.92 "HgN/A
11:00 PM
Aug 20
81 °FPassing clouds.7 mph89%29.95 "HgN/A
10:00 PM81 °FPassing clouds.5 mph89%29.98 "HgN/A
9:00 PM81 °FPassing clouds.6 mph89%29.98 "HgN/A
8:00 PM82 °FPartly cloudy.8 mph79%29.95 "HgN/A
7:00 PM81 °FPassing clouds.6 mph84%29.95 "HgN/A
6:00 PM81 °FBroken clouds.7 mph84%29.95 "HgN/A
5:00 PM82 °FBroken clouds.8 mph79%29.92 "HgN/A
4:00 PM86 °FPartly sunny.10 mph75%29.89 "HgN/A
3:00 PM86 °FPartly sunny.8 mph70%29.92 "HgN/A
2:00 PM88 °FPartly sunny.8 mph70%29.92 "HgN/A
1:00 PM88 °FPartly sunny.10 mph66%29.95 "HgN/A
12:00 PM86 °FBroken clouds.10 mph75%29.95 "HgN/A
11:00 AM84 °FPartly sunny.8 mph79%29.95 "HgN/A
10:00 AM82 °FBroken clouds.10 mph84%29.98 "HgN/A
9:00 AM84 °FPartly sunny.15 mph79%29.95 "HgN/A
8:00 AM82 °FBroken clouds.5 mph84%29.95 "HgN/A
Weather by CustomWeather, © 2014

See weather overviewHow to use our weather pages